Tracking 22454 objects as of 5-Mar-2021
HD Live streaming from Space Station
objects crossing your sky now

AC 10 PROBE(GOLF)


AC 10 PROBE(GOLF) is no longer on orbit


NORAD ID: 46928
Int'l Code: 2019-022N
Perigee: N/A
Apogee: N/A
Inclination: N/A
Period: N/A
Semi major axis: N/A
RCS: N/A
Launch date: April 17, 2019
Source: United States (US)
Launch site: WALLOPS ISLAND (WLPIS)
Decay date: 2021-02-13
aabbcc
Your satellite tracking list
Your tracking list is empty




NASA's NSSDC Master Catalog

Two Line Element Set (TLE):
1 46928U 19022N   21032.33895523 -.00000549  00000-0  00000+0 0  9997
2 46928  51.6225   5.7653 0002107  69.2131  85.0391 15.64407191 11499
Source of the keplerian elements: AFSPC